Location: Maynard F. Jordan Observatory
(44.9000°N, 68.6700°W)
Time: 09:28:33
(UTC-05:00)

Cosmos 2297 Rocket - Visible Passes

Search period start: 23 November 2014 00:00
Search period end: 03 December 2014 00:00
Orbit: 838 x 845 km, 71.0° (Epoch: 21 November)

Date Brightness Start Highest point End Pass type
(mag) Time Alt. Az. Time Alt. Az. Time Alt. Az.
23 Nov 4.4 05:55:26 10° N 05:59:18 18° NE 06:03:08 10° E visible
24 Nov 4.5 05:40:29 10° N 05:44:14 18° NE 05:47:57 10° E visible
25 Nov 4.5 05:25:32 10° N 05:29:09 17° NE 05:32:46 10° E visible
26 Nov 4.5 05:10:35 10° N 05:14:05 16° NE 05:17:34 10° E visible
27 Nov 4.6 04:55:39 10° N 04:59:00 16° NE 05:02:21 10° ENE visible
28 Nov 4.6 04:40:43 10° N 04:43:56 15° NE 04:47:08 10° ENE visible
29 Nov 4.6 04:25:47 10° N 04:28:51 15° NE 04:31:55 10° ENE visible
29 Nov 2.6 06:08:21 10° NNW 06:14:01 69° ENE 06:19:39 10° SE visible
30 Nov 4.7 04:10:52 10° N 04:13:46 14° NE 04:16:41 10° ENE visible
30 Nov 2.6 05:53:20 10° NNW 05:59:00 66° ENE 06:04:36 10° SE visible
01 Dec 4.7 03:55:57 10° N 03:58:42 14° NE 04:01:26 10° ENE visible
01 Dec 2.7 05:38:19 10° NNW 05:43:58 63° ENE 05:49:33 10° SE visible
02 Dec 4.7 03:41:03 10° NNE 03:43:37 13° NE 03:46:10 10° ENE visible
02 Dec 2.7 05:23:18 10° NNW 05:28:56 60° ENE 05:34:30 10° SE visible
